TimeEDT,TemperatureF,Dew PointF,Humidity,Sea Level PressureIn,VisibilityMPH,Wind Direction,Wind SpeedMPH,Gust SpeedMPH,PrecipitationIn,Events,Conditions,WindDirDegrees,DateUTC
12:15 AM,32.9,32.2,97,30.14,10.0,NNE,13.8,-,N/A,,Overcast,20,2013-04-10 04:15:00
12:34 AM,33.1,32.2,96,30.13,10.0,NNE,9.2,-,N/A,,Overcast,30,2013-04-10 04:34:00
12:54 AM,33.1,32.4,97,30.13,10.0,NNE,8.1,-,N/A,,Overcast,20,2013-04-10 04:54:00
1:14 AM,33.3,32.9,99,30.13,10.0,NNE,8.1,-,N/A,,Overcast,20,2013-04-10 05:14:00
1:34 AM,33.1,32.9,99,30.11,10.0,NNE,8.1,-,N/A,,Overcast,30,2013-04-10 05:34:00
1:52 AM,33.1,32.9,99,30.11,10.0,NNE,6.9,-,N/A,,Overcast,30,2013-04-10 05:52:00
2:15 AM,33.3,32.7,98,30.10,10.0,NNE,8.1,-,N/A,,Overcast,30,2013-04-10 06:15:00
2:34 AM,33.1,32.9,99,30.07,10.0,NE,6.9,-,N/A,,Overcast,40,2013-04-10 06:34:00
2:54 AM,33.3,32.9,99,30.12,10.0,Calm,Calm,-,N/A,,Overcast,0,2013-04-10 06:54:00
3:15 AM,33.4,33.1,99,30.11,10.0,NNE,3.5,-,N/A,,Overcast,20,2013-04-10 07:15:00
3:34 AM,33.8,33.3,98,30.13,10.0,Calm,Calm,-,N/A,,Overcast,0,2013-04-10 07:34:00
3:55 AM,33.8,33.8,100,30.15,10.0,North,5.8,-,N/A,,Overcast,360,2013-04-10 07:55:00
4:12 AM,33.4,33.4,100,30.16,10.0,North,6.9,-,N/A,,Overcast,360,2013-04-10 08:12:00
4:34 AM,33.3,33.3,100,30.15,10.0,North,6.9,-,N/A,,Overcast,10,2013-04-10 08:34:00
8:02 AM,33.1,31.5,94,30.10,7.0,East,9.2,-,N/A,,Overcast,90,2013-04-10 12:02:00
8:15 AM,33.1,31.6,94,30.10,10.0,East,10.4,16.1,N/A,Snow,Light Snow,90,2013-04-10 12:15:00
8:34 AM,32.9,31.6,95,30.09,7.0,ENE,9.2,-,N/A,Rain,Light Rain,70,2013-04-10 12:34:00
8:54 AM,32.5,31.8,97,30.10,7.0,ENE,9.2,-,N/A,Rain,Light Rain,70,2013-04-10 12:54:00
9:15 AM,32.9,32.0,96,30.14,10.0,ENE,6.9,-,N/A,Rain,Light Rain,70,2013-04-10 13:15:00
9:34 AM,32.9,32.0,96,30.16,7.0,NE,6.9,-,N/A,Snow,Light Snow,50,2013-04-10 13:34:00
9:54 AM,32.9,32.0,96,30.17,3.0,NE,8.1,-,N/A,Snow,Light Snow,40,2013-04-10 13:54:00
10:15 AM,32.9,32.2,97,30.14,2.5,ENE,9.2,-,N/A,Snow,Light Snow,70,2013-04-10 14:15:00
10:34 AM,33.8,32.5,95,30.14,10.0,ENE,8.1,-,N/A,,Overcast,60,2013-04-10 14:34:00
10:55 AM,34.0,32.4,94,30.12,10.0,ENE,9.2,17.3,N/A,,Overcast,60,2013-04-10 14:55:00
11:15 AM,34.9,32.9,92,30.10,10.0,ENE,12.7,18.4,N/A,,Overcast,70,2013-04-10 15:15:00
11:34 AM,35.4,32.9,91,30.08,10.0,ENE,12.7,-,N/A,,Overcast,70,2013-04-10 15:34:00
11:55 AM,35.8,32.7,89,30.09,10.0,ENE,13.8,20.7,N/A,,Overcast,60,2013-04-10 15:55:00
12:14 PM,36.9,33.3,87,30.10,10.0,ENE,10.4,-,N/A,,Overcast,70,2013-04-10 16:14:00
12:34 PM,36.5,32.0,84,30.15,10.0,NE,9.2,-,N/A,,Overcast,40,2013-04-10 16:34:00
1:14 PM,36.0,31.6,84,30.16,10.0,ENE,10.4,16.1,N/A,,Overcast,60,2013-04-10 17:14:00
1:34 PM,36.5,31.8,83,30.13,10.0,ENE,10.4,-,N/A,,Overcast,60,2013-04-10 17:34:00
1:55 PM,37.4,32.0,81,30.13,10.0,ENE,10.4,-,N/A,,Overcast,70,2013-04-10 17:55:00
2:14 PM,37.9,32.0,79,30.12,10.0,ENE,9.2,-,N/A,,Overcast,70,2013-04-10 18:14:00
2:34 PM,38.1,31.6,77,30.12,10.0,ENE,9.2,-,N/A,,Overcast,70,2013-04-10 18:34:00
2:55 PM,38.3,32.2,79,30.13,10.0,ENE,6.9,-,N/A,,Overcast,60,2013-04-10 18:55:00
3:14 PM,38.1,32.0,79,30.13,10.0,NNE,9.2,-,N/A,,Overcast,30,2013-04-10 19:14:00
3:35 PM,37.9,31.8,79,30.14,10.0,NNE,9.2,-,N/A,,Overcast,30,2013-04-10 19:35:00
3:55 PM,37.8,31.5,78,30.15,10.0,NE,9.2,-,N/A,,Overcast,50,2013-04-10 19:55:00
4:14 PM,38.3,31.5,76,30.14,10.0,North,9.2,-,N/A,,Overcast,360,2013-04-10 20:14:00
4:35 PM,37.4,32.0,81,30.12,10.0,North,10.4,-,N/A,,Overcast,10,2013-04-10 20:35:00
4:54 PM,38.7,31.6,76,30.10,10.0,NNE,10.4,-,N/A,,Overcast,30,2013-04-10 20:54:00
5:14 PM,39.2,31.3,73,30.10,10.0,NE,6.9,-,N/A,,Scattered Clouds,50,2013-04-10 21:14:00
5:35 PM,39.6,31.3,72,30.10,10.0,East,6.9,-,N/A,,Clear,80,2013-04-10 21:35:00
5:54 PM,39.9,30.9,70,30.10,10.0,ENE,4.6,-,N/A,,Clear,70,2013-04-10 21:54:00
6:14 PM,38.5,32.0,78,30.11,10.0,North,5.8,-,N/A,,Clear,360,2013-04-10 22:14:00
6:35 PM,38.1,32.0,79,30.12,10.0,North,4.6,-,N/A,,Mostly Cloudy,360,2013-04-10 22:35:00
6:54 PM,38.3,32.0,78,30.12,10.0,North,3.5,-,N/A,,Overcast,350,2013-04-10 22:54:00
7:14 PM,38.3,32.0,78,30.10,10.0,Calm,Calm,-,N/A,,Overcast,0,2013-04-10 23:14:00
7:35 PM,38.8,31.3,74,30.10,10.0,Calm,Calm,-,N/A,,Overcast,0,2013-04-10 23:35:00
7:54 PM,36.9,32.0,83,30.10,10.0,NNW,4.6,-,N/A,,Overcast,330,2013-04-10 23:54:00
8:14 PM,36.1,32.0,85,30.12,10.0,NNW,5.8,-,N/A,,Overcast,340,2013-04-11 00:14:00
8:35 PM,36.7,31.5,81,30.10,10.0,North,6.9,-,N/A,,Overcast,10,2013-04-11 00:35:00
8:54 PM,36.9,30.9,79,30.10,10.0,North,8.1,-,N/A,,Overcast,10,2013-04-11 00:54:00
9:14 PM,37.0,30.0,76,30.10,10.0,NNE,9.2,-,N/A,,Overcast,20,2013-04-11 01:14:00
9:35 PM,36.1,30.4,80,30.10,10.0,NNE,5.8,-,N/A,,Overcast,30,2013-04-11 01:35:00
9:54 PM,35.6,30.6,82,30.10,10.0,NNE,4.6,-,N/A,,Overcast,30,2013-04-11 01:54:00
10:15 PM,35.1,30.0,82,30.08,10.0,NE,5.8,-,N/A,,Scattered Clouds,50,2013-04-11 02:15:00
10:34 PM,35.6,28.0,74,30.11,10.0,NNE,4.6,-,N/A,,Clear,30,2013-04-11 02:34:00
10:54 PM,34.9,27.3,74,30.13,10.0,North,4.6,-,N/A,,Scattered Clouds,360,2013-04-11 02:54:00
11:15 PM,35.1,27.9,75,30.13,10.0,Calm,Calm,-,N/A,,Mostly Cloudy,0,2013-04-11 03:15:00
11:34 PM,35.4,28.0,75,30.14,10.0,North,6.9,-,N/A,,Scattered Clouds,10,2013-04-11 03:34:00
11:55 PM,34.2,29.8,84,30.14,10.0,North,8.1,-,N/A,,Clear,10,2013-04-11 03:55:00